Theta_e
296 294 293 293 294 293 292 291 291 290 289 289 291 292 294 296 297 298 299 299 300 299 300 300 299 298 297 301 302 302 302 302 302 303 305 306 305 305 304 305 305 304 303 302 302 302 300 297 297 296 297 298 298 298 297 298 301 302 300 296 296 293 292 291 291 292 293 294 289 289 290 287 291 292 289 290 291 293 294 297 298 299 297 297 300
293 293 292 291 291 292 293 294 295 295 294 289 291 292 293 294 297 298 298 299 300 300 301 301 301 302 301 301 302 302 301 301 301 302 304 305 304 304 304 304 304 304 303 302 302 301 299 297 297 297 296 297 298 298 295 298 299 299 299 296 295 296 294 293 293 294 292 291 291 287 286 287 289 290 289 289 289 292 292 293 296 295 295 295 297
292 291 291 291 291 293 294 293 292 292 291 291 290 291 292 294 296 297 299 299 299 300 300 300 300 300 301 298 302 299 299 302 302 302 303 303 304 304 304 304 303 303 302 302 301 300 299 298 298 297 297 298 297 296 295 295 298 300 300 302 295 292 291 292 293 292 290 286 287 288 285 287 288 289 288 288 288 289 290 291 294 293 293 293 295
292 292 292 291 291 293 293 295 294 292 293 293 292 292 293 295 295 297 299 299 299 300 301 299 299 297 296 298 299 298 298 298 298 298 299 300 301 302 302 302 303 303 302 301 301 300 299 299 298 297 297 298 298 297 295 295 297 299 300 300 299 295 292 294 293 289 288 291 292 288 285 286 288 287 283 287 285 287 289 289 290 291 291 292 293
291 291 292 290 291 294 296 294 293 295 292 292 293 294 296 295 296 298 299 299 299 300 300 299 299 297 297 297 297 296 297 297 296 295 299 300 301 299 301 301 301 302 301 301 301 300 299 299 298 298 297 297 298 297 296 296 297 299 300 301 300 301 295 291 293 291 289 290 290 287 287 288 287 285 283 286 288 292 291 287 289 289 290 291 291
292 292 292 290 292 293 294 294 295 293 294 293 291 293 294 295 296 297 298 298 299 299 299 299 299 299 298 298 296 297 295 296 298 299 297 298 299 298 298 300 301 302 301 301 301 300 299 298 298 297 297 297 298 298 297 295 296 298 300 302 300 299 299 292 293 291 292 291 287 290 291 289 289 287 287 289 284 286 286 286 287 286 286 288 290
289 290 290 290 292 292 294 294 294 295 295 293 291 291 293 294 295 297 298 298 298 299 299 300 298 298 299 299 299 299 298 297 296 297 298 298 299 299 300 300 301 302 301 301 301 300 299 298 298 298 298 297 298 297 296 296 297 299 300 301 302 300 297 296 296 295 291 291 290 289 290 290 288 289 289 285 288 287 286 287 292 287 286 287 290
290 291 291 290 291 292 295 295 294 295 294 291 291 291 292 294 294 296 297 299 298 299 298 300 299 298 298 298 299 298 298 298 297 297 298 298 298 298 299 299 300 301 300 300 300 300 299 298 298 298 297 297 298 297 297 296 297 297 300 301 300 301 300 301 296 293 296 294 292 291 290 286 287 288 285 291 287 287 288 284 285 287 286 288 288
290 290 290 291 292 292 292 293 294 292 292 293 292 292 291 292 294 294 295 296 297 298 299 299 299 298 298 298 297 297 296 295 296 296 297 297 297 295 297 298 298 298 299 299 299 299 300 299 297 297 297 297 298 297 296 296 297 298 298 299 299 299 300 300 297 296 295 295 291 290 289 290 288 286 286 285 288 288 286 285 287 283 287 288 288
288 290 290 291 291 290 290 291 292 292 290 291 290 289 289 290 293 293 294 294 296 296 298 298 297 298 297 297 297 296 295 292 295 296 296 296 297 296 296 297 297 297 298 298 299 299 299 299 298 297 297 297 298 297 296 296 296 298 299 300 300 299 298 299 300 298 296 294 295 293 293 289 290 290 289 288 287 288 289 286 282 286 289 287 283
288 289 289 290 290 290 290 292 291 290 289 289 290 289 289 291 292 293 293 293 294 296 297 297 297 297 297 297 297 296 295 295 294 294 294 294 296 295 296 296 297 298 297 298 299 299 299 298 298 297 297 298 298 297 296 296 296 297 298 299 299 300 299 298 297 294 296 295 293 294 295 295 294 293 292 288 290 288 289 288 284 283 285 286 287
289 289 291 290 291 292 291 293 291 290 291 290 289 289 290 290 291 293 291 293 293 295 296 297 297 297 296 297 297 297 296 296 296 295 295 296 296 296 295 295 295 296 297 297 297 297 298 297 297 297 297 297 297 297 297 297 296 296 297 299 299 299 298 298 297 296 294 295 294 294 294 295 293 294 293 293 292 290 290 288 286 283 284 286 286
290 291 290 290 291 291 291 291 291 293 294 291 290 290 289 289 291 293 293 291 293 294 296 296 296 297 297 297 296 297 296 297 297 296 296 296 296 296 295 295 295 295 295 296 297 297 298 297 296 296 297 297 297 296 296 296 296 296 297 298 299 299 299 299 298 298 296 296 296 294 294 294 295 292 292 292 291 289 289 289 284 284 289 284 280
289 290 289 290 290 291 290 290 289 289 289 290 289 290 289 290 289 292 293 291 291 293 295 295 296 297 296 297 297 297 296 296 296 297 296 297 297 297 296 297 296 297 297 297 298 298 298 298 298 298 297 296 296 296 296 296 295 296 296 297 298 299 298 298 299 298 296 297 295 294 294 295 295 294 294 291 291 290 288 289 286 284 283 285 281
289 289 290 290 291 290 291 290 289 289 289 288 288 289 288 290 291 291 291 290 291 293 293 294 295 295 295 296 296 296 297 296 296 297 296 296 296 297 297 297 297 297 298 298 298 298 298 298 297 297 296 296 296 296 296 295 295 295 296 296 297 297 298 299 298 297 297 296 294 296 296 294 295 293 292 293 293 293 292 288 290 291 287 282 284
289 289 290 290 289 289 289 289 289 288 288 287 288 289 289 291 291 292 293 292 291 293 293 294 295 295 295 295 296 296 297 296 296 295 296 297 297 297 297 297 298 298 298 297 297 298 298 297 297 297 296 296 296 296 295 295 294 295 294 295 296 296 297 297 298 297 298 297 296 294 293 295 295 294 294 294 293 293 294 289 291 290 290 289 282
289 290 290 290 288 288 289 289 288 287 287 288 290 289 290 291 291 292 291 289 291 292 293 293 294 293 294 294 294 294 295 295 296 295 296 296 297 297 297 297 297 297 297 297 297 297 298 298 297 297 296 296 295 296 296 295 294 295 295 294 295 295 297 297 297 297 298 297 296 295 296 296 295 293 293 293 294 291 293 291 292 294 291 289 286
288 287 287 288 287 288 288 287 288 289 289 288 290 289 290 290 291 292 291 292 291 291 292 292 293 293 293 293 294 295 296 296 296 296 295 295 295 296 295 295 296 297 298 297 297 297 297 297 297 297 296 296 296 295 295 295 294 294 295 295 295 295 295 295 296 297 297 296 296 294 294 295 294 293 294 293 292 293 291 292 292 291 293 293 290
288 288 288 288 288 289 289 289 288 288 289 289 289 289 289 288 289 290 291 291 292 292 290 291 292 294 295 295 295 295 295 295 295 295 295 295 295 295 295 297 296 296 296 296 296 296 296 297 297 297 296 296 295 295 295 295 294 294 294 294 293 293 294 295 295 295 296 295 295 295 294 295 294 294 293 293 292 292 292 291 290 291 291 293 292
288 288 288 288 288 288 289 289 289 289 288 287 288 287 288 288 289 289 289 288 289 290 290 291 292 293 294 292 293 294 294 295 295 295 294 295 295 295 295 294 296 296 296 296 296 296 296 296 296 297 296 295 295 295 295 295 294 295 294 294 293 293 293 294 294 294 295 295 295 295 295 296 294 291 292 291 292 292 292 291 291 291 290 291 291
287 287 287 288 288 288 288 287 288 287 285 286 286 288 288 289 289 289 290 290 290 290 290 292 291 292 292 293 293 293 293 294 294 294 295 294 294 295 295 296 294 295 296 295 296 296 296 296 296 296 296 296 295 295 295 294 294 294 294 294 293 293 293 293 294 293 292 293 294 295 295 295 292 293 293 292 291 291 291 291 291 290 290 290 291
286 287 286 287 287 287 287 287 286 285 288 287 288 287 287 288 290 289 289 291 291 290 291 292 291 292 292 293 293 292 293 293 293 293 294 294 294 294 295 294 295 295 295 296 296 296 296 296 296 296 296 296 296 296 295 295 294 294 294 294 294 293 293 293 292 293 292 293 293 293 294 293 292 294 293 292 292 291 290 290 290 291 291 291 290
286 286 287 287 287 287 287 288 288 288 288 287 286 287 289 289 289 289 290 292 292 292 291 290 291 291 292 292 292 292 292 292 292 293 293 293 294 293 293 294 295 294 294 296 296 296 296 296 296 296 296 296 296 295 295 295 295 295 294 294 294 293 293 293 292 292 292 292 292 292 293 292 290 292 292 293 290 291 290 291 291 290 291 291 290
284 285 286 286 286 286 287 289 290 290 288 289 288 287 288 289 290 289 290 292 291 291 290 290 290 291 290 289 291 291 291 291 292 293 293 293 293 293 293 294 294 294 294 294 295 295 295 295 295 295 295 296 295 295 294 294 295 295 294 294 294 293 293 293 293 293 292 291 292 292 292 291 290 292 291 290 290 290 291 291 291 291 291 291 290
284 284 286 286 286 287 289 290 290 291 290 289 290 289 288 289 289 290 291 292 291 289 289 290 290 290 289 290 290 290 291 291 292 292 292 292 292 292 292 293 293 293 293 293 292 293 294 294 295 294 294 295 295 295 294 294 294 294 295 295 294 294 294 293 293 293 293 292 292 292 292 291 290 291 290 289 289 290 291 291 291 291 291 291 289
286 286 286 286 287 287 287 288 289 290 291 292 291 291 290 289 289 290 291 290 290 288 290 290 289 289 289 289 290 289 291 291 292 292 292 292 292 291 292 292 293 293 292 292 293 292 294 294 294 294 294 294 294 294 295 294 294 294 294 294 294 293 293 293 292 292 292 292 292 292 291 291 291 291 292 291 290 290 289 290 290 290 291 289 288
288 288 289 287 288 290 289 288 289 290 291 292 291 291 290 289 288 288 289 289 289 288 289 290 289 289 290 289 290 290 291 292 292 292 291 290 291 291 291 291 291 293 292 291 291 292 292 293 293 293 293 294 294 293 294 293 293 293 293 293 292 292 292 292 292 292 292 292 292 291 291 290 291 291 292 291 290 289 289 289 290 290 289 287 288
288 288 290 291 291 290 290 290 288 289 290 290 290 290 290 289 289 289 287 287 288 287 288 289 289 288 289 290 290 290 290 290 290 288 289 289 290 289 291 290 289 291 291 291 291 292 291 291 292 292 293 292 292 292 292 292 292 292 292 292 292 292 291 290 290 290 291 291 291 291 291 291 291 291 291 291 290 290 289 289 289 289 287 288 288
290 290 291 291 291 291 291 290 290 288 288 289 289 288 287 287 287 288 286 287 286 287 287 288 288 288 290 290 288 286 286 287 287 287 287 288 288 289 288 288 288 289 290 290 291 291 290 289 288 289 290 289 291 291 292 292 292 291 291 292 292 291 291 290 290 289 289 289 289 288 289 289 290 291 291 291 291 291 290 289 287 287 287 287 287
290 291 291 291 291 292 292 293 293 292 289 287 287 287 287 288 289 288 286 286 285 287 288 287 288 289 288 287 286 285 286 286 286 287 287 287 287 286 286 286 287 287 287 286 287 287 289 289 289 287 287 287 289 290 290 292 293 292 291 291 290 290 290 289 288 287 286 286 287 287 288 290 289 289 290 290 291 291 292 291 290 287 287 286 286
290 291 291 291 290 290 291 291 291 291 290 289 288 288 287 286 287 287 287 286 286 287 287 287 289 288 286 285 285 285 285 286 286 285 285 286 286 285 285 286 285 285 286 285 286 287 286 287 288 288 287 287 288 290 291 294 294 294 291 290 290 289 288 288 287 287 287 285 285 286 286 287 288 288 288 289 291 291 291 291 292 290 290 289 286
291 291 290 290 290 290 290 291 291 292 291 288 288 288 286 287 287 286 287 284 285 286 287 287 287 286 285 285 285 285 285 285 285 286 286 285 284 285 285 286 285 284 284 284 285 286 286 285 285 286 286 286 286 290 293 294 294 294 292 290 289 288 287 287 286 286 285 285 284 284 284 284 285 286 286 286 288 290 290 291 291 291 291 291 292
291 290 290 290 291 291 291 291 291 291 291 290 288 286 286 287 286 287 284 284 285 286 287 286 284 285 285 284 284 285 285 284 285 285 284 284 285 285 284 285 286 284 284 285 285 284 284 284 285 285 284 283 284 291 293 293 294 294 294 290 287 286 286 285 285 285 285 284 283 283 283 282 284 286 286 284 285 285 288 290 290 290 290 291 292
289 289 290 291 291 291 291 290 291 290 289 288 285 287 287 286 285 283 284 285 286 285 286 285 284 284 284 284 285 284 283 285 285 285 285 285 285 286 284 285 285 286 286 284 284 285 284 284 284 284 283 283 283 290 292 293 293 293 294 290 285 285 284 284 284 284 283 283 283 283 283 283 283 283 284 284 284 283 284 284 284 284 283 285 289
289 289 290 290 290 290 289 288 288 287 285 284 283 282 283 283 283 284 284 285 285 285 284 284 284 283 283 284 285 285 285 284 285 285 286 286 285 284 284 284 286 286 284 283 283 283 284 284 284 284 284 284 285 291 292 292 293 293 294 289 284 284 283 282 282 282 282 282 282 283 282 282 282 282 281 282 282 283 283 282 283 282 282 282 282
291 291 291 291 290 289 288 289 287 285 284 283 284 281 282 283 282 284 283 284 284 284 283 283 283 282 284 285 285 284 284 284 284 284 284 284 284 284 284 284 283 283 284 284 284 284 284 284 284 283 284 284 285 290 290 291 292 292 289 284 284 283 282 282 282 282 282 281 281 280 281 281 281 282 283 287 285 281 282 282 282 281 281 280 281
291 290 289 287 284 283 282 282 283 283 282 282 281 282 283 282 283 282 283 283 284 283 283 282 282 282 283 284 284 284 284 284 283 283 283 283 283 283 283 283 283 284 284 283 284 283 284 283 283 282 282 282 283 286 288 288 289 289 284 283 284 283 283 282 282 282 282 282 282 283 284 284 283 283 285 288 289 287 284 283 283 283 284 284 285
280 279 280 280 279 279 280 279 279 279 280 280 281 282 283 283 282 282 283 283 283 282 281 282 281 281 282 284 285 285 284 284 284 282 282 283 283 284 284 285 284 283 283 282 282 281 281 281 281 281 282 282 282 285 287 286 285 285 284 283 283 282 283 283 283 284 284 284 284 284 284 283 283 283 286 288 289 287 284 285 285 285 285 285 285
277 277 277 278 278 278 278 278 279 278 279 280 282 282 283 282 280 281 281 280 280 280 280 280 280 280 280 281 283 283 283 283 283 282 282 283 283 283 282 282 282 282 281 280 279 279 278 279 279 280 281 281 281 283 286 286 285 284 282 282 282 282 282 283 283 284 283 283 282 283 283 284 283 285 289 289 289 285 281 282 282 283 284 284 284
276 276 275 274 275 276 275 275 275 276 277 279 281 281 280 279 278 278 278 277 277 277 278 278 278 278 278 279 280 281 282 282 282 281 281 281 280 281 281 281 281 280 279 278 278 277 276 276 277 278 279 280 281 281 283 285 285 284 282 279 279 280 280 282 282 282 282 282 281 281 282 285 286 286 287 287 287 287 282 282 283 284 284 283 282
275 275 276 274 273 273 272 272 273 275 276 278 279 278 277 276 276 276 275 275 276 276 276 276 276 277 277 277 278 279 279 278 279 279 278 278 279 280 280 280 279 278 277 276 276 275 275 275 275 276 277 277 279 280 282 284 284 283 282 279 277 276 277 277 278 278 279 278 277 278 279 282 284 284 284 285 286 286 285 280 281 282 284 285 285
276 276 274 274 273 272 273 273 273 274 276 277 277 276 275 275 274 273 274 275 275 275 275 275 275 275 275 275 276 276 276 276 276 277 277 276 276 278 279 278 278 277 276 274 274 273 273 273 273 273 274 275 277 278 280 282 283 283 282 281 277 276 276 275 275 274 274 275 275 275 274 279 282 282 283 283 284 284 283 281 282 285 285 285 283
275 275 274 274 273 272 271 271 272 273 275 276 276 274 273 274 272 273 273 273 274 274 274 273 273 272 272 272 273 273 274 274 275 275 276 275 275 276 276 277 276 275 274 273 273 272 272 272 272 272 272 272 274 276 279 279 281 281 282 281 280 278 278 274 273 272 272 271 273 272 274 279 281 281 281 282 282 282 281 279 283 283 283 283 283
273 274 273 273 272 271 271 271 271 271 272 274 275 274 273 272 271 272 272 272 273 273 273 272 272 272 272 272 272 272 272 272 273 274 274 274 273 273 274 274 275 275 273 272 272 271 271 271 271 271 272 272 272 273 275 276 277 280 280 280 280 280 278 273 272 271 270 271 271 273 276 280 280 280 280 281 280 280 279 282 282 282 281 281 278
273 273 273 272 272 271 270 270 270 270 271 271 273 273 272 271 271 272 272 272 272 271 271 270 270 271 271 271 272 272 272 272 272 273 273 272 272 272 272 271 273 273 272 271 270 270 270 270 270 270 271 271 271 270 271 273 274 276 278 278 278 278 278 277 272 270 272 272 277 279 279 279 279 279 279 279 278 279 280 279 279 278 277 276 277
273 272 272 271 270 270 269 269 269 269 269 269 270 272 271 271 272 272 272 272 272 271 270 270 270 271 271 272 272 272 272 273 273 273 272 271 270 270 270 269 269 269 269 269 269 269 269 270 269 270 270 270 269 268 268 269 271 272 273 275 276 276 275 276 275 272 277 278 278 278 278 278 277 276 275 274 274 275 276 275 275 274 273 274 275
272 272 271 271 271 269 269 268 267 268 268 268 268 269 270 270 270 271 271 271 270 270 269 269 270 270 271 272 272 272 272 272 272 272 272 271 271 270 269 269 269 269 268 268 268 268 268 269 269 270 270 270 269 268 267 266 268 269 268 269 269 270 273 273 271 271 273 272 275 275 275 276 275 275 274 274 274 274 272 272 271 272 271 272 273
272 272 271 271 270 269 268 267 266 267 267 266 267 267 268 268 269 270 270 270 269 269 268 268 268 269 270 271 271 271 271 271 271 271 271 271 271 271 270 270 269 270 270 270 270 270 269 269 269 270 269 269 269 269 269 268 270 270 268 268 268 268 267 267 270 272 271 272 270 271 270 270 269 269 269 268 269 270 270 270 269 270 270 270 271
269 269 269 269 268 267 266 266 265 265 265 265 265 266 266 267 268 268 268 268 268 268 268 267 268 269 269 270 270 270 270 270 270 270 271 271 271 271 271 270 270 270 270 269 269 269 269 269 269 269 269 268 269 269 270 273 273 274 272 270 270 270 270 270 273 274 269 267 267 266 266 266 266 266 266 265 265 265 266 266 267 268 268 267 267
267 266 266 265 265 265 264 263 264 264 264 264 264 265 265 266 267 268 268 267 267 267 266 266 267 268 268 269 269 270 270 270 269 269 269 269 272 273 273 272 271 273 272 272 271 268 269 269 269 270 270 269 268 270 273 273 273 273 275 275 274 274 274 272 273 273 268 264 265 263 264 263 264 264 264 263 263 263 263 262 264 265 265 264 263
266 265 264 263 263 263 263 262 263 263 263 263 263 264 264 265 266 267 267 267 267 266 265 265 266 266 267 268 268 269 269 269 269 268 267 267 267 268 271 272 272 273 273 273 274 273 273 271 269 268 271 273 273 272 271 271 272 273 273 274 273 273 273 273 273 267 264 263 263 263 262 261 262 262 262 261 262 261 262 261 261 262 262 262 261
Wind_Speed
12 7 8 8 8 7 6 5 6 5 6 6 6 7 8 9 7 9 7 7 9 9 8 9 8 6 3 8 9 7 8 7 7 7 8 8 9 9 9 9 9 9 9 9 9 8 7 6 7 6 6 7 7 8 7 7 7 6 6 4 6 3 1 2 2 4 3 1 2 3 4 2 2 1 3 3 3 4 2 3 4 4 5 5 5
8 11 10 6 7 6 5 6 5 6 8 6 9 9 6 5 8 7 6 7 9 10 10 10 9 11 11 11 8 8 8 9 9 8 10 9 9 9 9 9 9 9 8 8 8 8 8 7 7 8 7 7 7 6 6 6 6 5 6 3 0 4 4 5 5 4 0 1 1 4 3 4 1 1 2 2 3 3 3 2 3 3 5 5 4
9 11 10 7 6 6 4 3 3 5 3 6 5 4 5 7 6 6 7 9 8 9 9 10 8 6 6 4 9 5 4 4 5 6 6 8 8 9 9 9 10 9 9 9 8 8 9 8 8 7 8 7 7 6 6 7 7 8 8 7 4 0 2 3 5 3 3 2 1 1 2 4 2 1 2 3 2 2 2 2 2 3 4 4 4
13 11 9 6 5 5 3 1 0 0 1 2 3 5 4 5 5 6 7 7 8 8 8 5 5 4 3 5 4 5 4 4 3 4 5 5 7 8 7 8 9 9 9 9 8 8 9 9 7 7 8 7 9 8 7 8 7 6 7 6 6 4 2 4 4 3 4 6 1 2 1 1 4 0 3 5 2 3 1 2 2 2 3 5 4
12 9 7 5 5 4 3 2 2 0 1 4 4 5 5 7 7 8 8 9 7 7 7 7 7 5 5 6 5 5 4 5 4 4 7 8 6 7 8 7 7 8 8 9 9 10 9 8 8 8 8 8 7 8 8 9 9 8 9 7 8 7 6 3 4 4 3 0 4 2 1 1 3 2 2 3 1 1 1 2 3 2 3 3 4
10 10 7 5 5 5 4 3 1 1 0 1 3 3 4 4 5 5 5 6 8 8 9 9 9 10 9 8 7 5 6 7 10 12 10 9 9 4 4 7 8 8 8 9 9 8 9 9 8 8 8 8 8 8 7 6 7 7 9 9 8 6 6 5 4 3 4 2 0 1 1 1 1 1 1 1 3 1 3 3 3 3 1 3 3
5 7 6 6 6 4 5 4 3 1 0 0 0 1 2 4 4 5 6 6 6 7 8 8 8 8 10 11 10 11 10 7 4 4 7 7 7 9 9 8 9 10 9 9 9 8 8 8 9 9 8 8 7 7 7 8 8 8 7 7 8 6 6 7 7 6 1 3 3 1 1 0 2 0 2 1 2 1 1 1 1 1 3 3 3
5 5 4 5 5 4 6 4 3 2 0 2 1 1 2 3 4 5 4 5 5 6 8 8 10 9 8 7 7 7 8 8 7 5 5 6 8 8 7 7 8 8 8 8 8 9 8 8 8 8 8 8 8 8 9 7 6 5 7 8 6 7 8 8 6 6 9 5 6 5 1 1 1 1 1 0 1 1 2 2 1 4 4 4 3
4 4 3 4 4 5 5 5 3 2 1 0 0 1 2 2 2 3 4 4 4 6 8 7 7 8 8 7 6 4 3 3 4 4 6 6 7 5 6 6 7 6 6 8 8 8 8 9 8 8 8 8 7 7 6 7 9 9 7 7 8 7 7 6 6 8 7 6 5 4 3 3 1 1 1 1 2 0 5 1 1 3 1 4 4
2 4 4 4 4 3 3 3 3 2 1 1 1 2 3 4 4 4 4 4 4 5 6 6 5 6 6 6 6 5 4 3 5 6 6 6 7 7 6 7 7 6 6 6 7 8 8 8 8 9 9 8 7 8 7 7 7 8 9 9 7 8 6 7 8 6 7 5 5 6 6 3 1 1 1 1 0 1 4 2 1 1 2 1 2
4 3 4 5 4 3 1 1 1 1 2 3 3 3 3 4 4 4 3 3 4 5 6 7 5 5 6 6 7 7 6 6 6 5 5 5 7 6 7 7 7 7 7 7 8 9 8 8 8 8 8 8 8 8 8 8 8 8 7 6 8 9 8 7 5 4 6 6 5 7 8 8 9 7 6 4 4 2 0 5 2 3 2 4 1
5 4 4 3 2 0 0 0 1 1 1 3 3 3 4 4 4 5 4 5 5 5 6 6 6 6 5 6 8 8 8 8 9 9 8 9 8 8 6 6 6 6 6 7 7 7 7 7 6 7 8 8 9 8 7 8 7 7 7 7 7 7 5 7 6 6 6 6 6 6 6 6 5 6 5 7 7 6 4 5 2 1 2 5 6
6 6 5 4 3 4 1 1 1 0 1 1 2 2 3 4 5 6 5 4 5 5 6 6 6 6 7 7 6 6 8 8 8 8 7 8 7 7 7 7 6 6 7 7 7 8 7 7 7 8 7 7 7 7 7 7 7 7 8 7 7 8 9 8 8 9 8 8 8 6 5 6 7 4 5 6 4 3 3 3 0 1 2 4 2
7 6 6 5 4 4 2 3 3 3 3 3 2 3 3 3 3 4 4 3 3 4 5 5 6 7 6 7 7 7 7 7 7 7 7 7 7 8 9 9 9 10 9 10 10 9 8 9 9 9 7 7 7 7 7 7 7 8 7 8 8 8 6 8 9 7 6 7 4 6 6 7 6 5 5 5 6 4 2 4 2 1 2 3 3
6 6 6 6 5 3 3 2 3 3 3 3 3 3 4 4 4 4 3 3 4 5 4 5 6 6 6 6 7 6 7 7 7 7 7 7 6 7 7 7 8 8 9 9 7 9 9 8 7 7 7 7 6 6 7 7 7 6 7 8 7 6 7 7 7 7 8 7 6 7 7 6 6 6 6 6 6 6 6 5 3 5 4 1 2
6 5 6 7 6 3 3 4 4 4 3 2 2 2 3 4 4 4 5 5 6 6 6 7 7 6 6 6 7 7 5 5 5 5 6 7 8 8 8 8 8 7 7 6 7 8 8 9 8 8 7 7 7 7 7 7 7 7 7 6 7 5 7 7 7 6 8 7 8 6 5 7 6 6 6 6 6 6 4 4 3 4 4 7 3
7 6 6 6 3 3 4 5 4 4 3 4 4 4 4 4 5 6 5 4 6 7 7 7 7 6 6 6 5 5 6 7 7 7 7 7 7 7 8 8 7 7 7 6 8 7 8 9 8 8 8 8 8 8 8 8 8 8 8 7 8 7 7 8 6 7 7 7 6 7 8 7 6 5 5 6 6 4 4 4 5 6 6 3 3
5 5 4 6 4 4 5 4 5 5 4 4 4 4 4 5 5 7 6 8 7 7 8 7 7 6 6 6 6 7 7 7 7 7 6 7 6 6 5 6 7 7 7 7 7 8 8 9 8 8 8 8 8 8 8 8 8 8 8 8 8 7 7 5 6 7 7 6 6 5 5 6 4 5 6 5 5 6 6 6 6 5 6 7 5
6 6 5 6 5 6 6 5 4 4 4 4 4 5 5 5 6 6 7 6 5 6 5 4 5 5 6 7 8 7 6 6 6 6 6 7 7 7 7 8 6 6 7 6 7 7 8 8 8 8 8 8 7 8 8 8 8 8 7 8 6 7 7 8 7 7 7 6 7 7 6 7 5 6 5 5 5 5 6 6 6 5 6 6 7
5 5 5 6 6 6 6 5 5 4 4 3 3 2 3 3 4 4 3 2 1 4 4 5 6 5 5 4 5 5 6 6 6 7 7 7 7 7 7 6 8 7 7 7 8 8 8 8 8 8 8 7 8 7 8 8 8 8 8 7 7 7 7 8 7 7 6 7 7 8 8 8 5 4 5 5 6 5 5 6 6 6 6 6 5
5 5 6 6 6 6 5 4 5 5 4 4 4 4 3 2 3 3 4 4 4 4 4 5 4 6 5 7 7 6 7 6 6 7 8 8 7 7 7 7 5 7 7 8 8 8 8 9 9 8 9 8 8 8 8 8 8 8 7 8 7 8 8 8 7 7 6 6 7 8 8 7 5 5 6 5 5 6 5 6 5 6 6 5 6
5 5 5 6 5 6 5 4 5 5 6 5 4 2 4 4 4 3 3 5 5 5 6 5 5 5 7 7 7 5 7 6 7 7 7 7 7 7 7 6 7 8 8 9 9 8 8 8 8 9 9 9 9 9 8 8 9 8 8 7 8 9 8 8 7 8 7 7 7 8 7 6 6 7 6 6 6 5 5 6 6 7 7 7 6
8 7 7 6 5 6 6 6 7 6 6 5 5 4 5 5 4 4 5 8 6 6 4 4 5 6 7 6 5 6 6 7 7 7 7 7 7 6 6 8 8 7 7 8 9 8 8 8 8 9 9 8 9 9 8 9 9 10 10 9 9 9 10 9 9 9 8 7 7 8 8 6 5 6 6 6 5 6 5 7 7 6 7 6 6
5 6 7 7 6 5 5 7 7 6 6 6 5 5 5 5 5 4 7 9 5 6 5 5 6 7 6 5 6 6 7 7 7 7 7 6 6 6 6 7 7 7 8 7 7 8 7 8 8 8 8 8 8 8 8 9 10 10 9 10 9 9 9 9 10 9 8 8 9 8 7 6 6 7 6 5 5 5 6 7 6 7 7 7 7
6 6 7 6 6 6 7 7 8 8 6 6 7 7 6 8 5 7 9 7 5 5 6 6 6 7 6 6 6 6 7 7 7 6 7 6 6 6 6 7 7 7 7 7 6 6 7 7 8 8 8 7 8 8 9 8 8 8 9 9 9 9 9 9 9 9 8 9 8 9 7 7 7 8 5 6 6 7 7 6 8 7 7 6 5
8 8 6 7 6 5 6 7 7 7 8 8 7 8 8 7 8 6 7 6 7 5 6 6 6 7 7 7 7 6 7 8 8 7 8 7 7 6 7 6 7 8 7 7 8 7 8 8 7 8 8 8 8 8 9 9 9 8 7 8 8 8 8 8 7 7 7 8 8 8 7 7 8 9 9 7 7 8 6 7 7 6 7 5 5
10 9 10 8 10 13 9 6 7 8 8 8 7 7 7 8 9 7 6 6 5 6 6 7 7 7 6 7 7 8 8 8 8 8 6 6 7 7 7 8 7 8 8 8 6 7 6 7 7 7 7 7 7 7 7 7 7 7 8 8 7 7 7 7 6 7 7 7 7 6 6 7 8 9 8 7 7 6 7 7 8 7 5 5 5
9 8 11 13 12 11 12 12 8 9 9 8 7 7 7 7 9 7 6 6 6 6 6 7 7 7 7 8 9 7 6 6 5 4 5 6 6 6 7 6 7 7 8 8 8 8 6 6 7 7 7 7 7 7 6 7 7 7 7 7 7 7 7 6 5 6 6 7 7 6 6 7 8 8 7 6 7 7 6 7 7 6 5 6 7
13 14 13 11 13 12 13 13 13 9 10 10 8 8 6 7 7 8 6 8 6 6 7 7 7 8 9 8 6 5 4 5 5 5 5 6 6 6 5 6 6 6 6 6 6 7 7 6 5 5 5 5 7 7 7 8 7 7 7 7 7 7 7 7 6 5 5 5 4 4 5 5 7 9 10 8 8 8 7 7 6 6 6 7 6
14 15 14 12 12 13 14 15 15 15 12 9 8 8 8 8 9 8 7 6 6 8 7 7 8 10 7 5 5 5 5 5 5 6 6 5 5 5 6 5 5 5 5 5 5 4 6 7 6 5 5 5 5 5 7 12 10 8 7 6 5 6 6 5 5 4 4 4 4 4 4 8 10 10 10 9 9 10 10 8 7 7 7 6 6
16 16 16 13 11 12 14 15 17 17 14 11 9 8 7 8 9 7 8 7 7 7 7 8 10 8 6 5 5 6 5 6 6 5 5 6 6 6 6 5 5 5 6 5 6 6 5 6 7 7 6 6 6 6 10 11 12 11 7 6 7 6 5 5 5 5 5 4 4 3 3 4 5 6 5 8 9 10 10 11 9 9 9 8 6
19 16 11 11 13 15 16 17 17 17 14 9 10 9 7 10 8 8 8 4 6 7 9 9 8 5 5 6 6 6 6 6 6 6 6 6 6 6 6 6 6 5 5 5 6 6 6 5 5 5 6 6 6 6 10 10 11 12 10 7 6 6 6 5 5 5 5 4 4 4 3 3 3 4 4 4 5 7 9 9 9 9 9 10 9
15 12 12 14 16 17 16 16 14 14 13 11 9 7 9 10 8 8 4 6 8 8 8 7 5 6 6 5 6 7 6 6 7 6 6 7 7 7 6 6 6 5 5 6 6 6 6 5 6 6 4 3 3 4 7 9 10 11 11 8 6 5 5 5 5 5 5 4 4 4 3 3 3 5 4 4 4 4 6 7 8 8 9 10 11
10 11 14 16 14 12 12 12 13 12 9 8 5 8 9 7 7 4 6 7 8 8 8 7 6 5 6 6 6 6 7 6 6 7 7 7 7 7 7 5 6 6 6 6 6 6 6 6 6 7 6 4 3 5 7 8 9 10 11 8 5 6 5 5 5 5 4 4 4 4 4 3 1 1 1 2 2 2 1 1 1 2 3 4 7
14 15 16 15 14 12 10 10 9 9 7 5 4 5 2 2 4 5 5 6 6 7 6 5 5 4 4 5 5 6 7 5 5 5 6 6 7 7 7 5 6 6 8 9 9 8 6 7 7 7 7 6 3 6 7 8 9 10 12 8 5 5 5 4 4 4 4 3 3 4 3 2 2 2 1 3 3 3 2 1 1 2 3 3 3
17 17 17 14 10 10 10 11 6 5 5 5 6 4 4 4 3 5 5 5 5 5 5 5 5 4 5 5 6 6 5 6 6 6 7 7 6 6 8 6 7 6 6 7 6 8 9 8 7 7 8 8 5 10 10 10 10 11 10 6 6 6 6 6 5 4 5 4 4 4 4 3 2 0 1 2 3 2 2 1 1 2 3 3 3
16 10 11 8 6 5 5 4 3 2 2 3 1 3 4 4 4 3 5 5 6 6 6 6 6 5 6 6 7 8 8 7 7 9 8 7 7 6 6 5 9 8 9 8 8 7 7 8 7 7 9 7 7 9 12 12 12 12 8 7 7 7 7 7 6 5 4 4 4 3 4 4 3 2 2 3 2 3 1 2 2 2 3 3 5
5 6 5 5 4 3 3 2 1 4 4 1 1 3 5 5 4 4 4 4 4 5 4 5 6 5 6 7 8 10 10 9 9 11 9 7 7 7 7 6 10 9 9 7 7 8 7 6 8 7 7 9 7 9 13 13 13 13 10 9 8 9 8 7 6 5 5 6 7 8 6 5 4 2 1 1 2 2 3 3 3 3 3 4 4
3 3 4 4 4 3 4 5 4 4 4 2 2 4 6 6 5 5 5 6 5 4 4 4 4 2 3 5 7 8 9 9 9 8 8 9 8 7 6 6 8 9 8 7 8 9 9 8 8 8 10 10 8 9 14 14 13 12 9 7 7 7 8 6 6 6 6 6 6 7 9 7 5 5 8 7 6 2 2 2 3 2 3 3 3
2 3 2 3 4 4 8 9 8 6 4 3 4 5 6 7 6 6 8 7 5 5 4 4 4 4 3 4 3 6 6 8 9 8 7 7 7 8 8 9 8 8 9 8 8 9 10 8 7 8 8 7 9 8 11 16 15 14 12 7 5 7 6 6 5 5 5 5 6 5 7 11 10 10 9 8 8 6 3 2 1 1 2 3 2
3 3 3 4 6 6 7 6 5 6 4 3 5 8 7 6 7 9 8 6 4 4 5 5 5 6 6 6 5 5 8 7 7 8 7 7 6 8 8 10 10 9 9 9 10 9 10 9 8 8 8 8 7 8 11 17 16 16 16 12 8 7 6 6 6 6 5 4 4 5 5 9 10 10 9 8 7 7 5 3 1 1 1 2 3
4 5 3 5 7 8 7 8 8 8 7 3 6 9 6 7 9 9 6 4 4 5 5 6 7 7 6 6 6 6 7 7 6 7 9 8 6 7 8 9 9 10 11 11 9 9 10 9 8 8 8 9 9 11 9 15 17 17 16 16 9 7 6 7 7 5 4 3 3 2 2 5 8 8 8 7 8 7 7 3 2 4 5 5 2
4 5 6 4 3 5 7 6 6 7 8 7 4 9 6 7 10 6 4 5 5 6 7 7 7 7 6 6 5 7 7 6 7 7 9 9 7 8 8 9 10 10 11 11 10 9 10 10 9 8 7 8 8 9 14 11 16 16 17 16 15 10 11 7 7 5 4 2 0 1 1 5 7 8 7 8 7 8 5 3 5 5 4 4 2
4 3 2 3 4 5 6 7 6 5 6 7 4 6 7 9 8 3 2 3 6 7 8 8 7 6 6 5 6 7 7 7 7 8 9 9 9 8 8 7 8 10 10 10 8 8 9 10 8 7 7 6 7 7 11 13 12 16 15 15 14 14 11 5 5 4 3 2 1 1 2 6 7 7 7 7 7 6 4 7 7 7 6 5 1
3 4 5 6 5 6 6 7 8 8 5 5 4 5 10 10 4 4 3 3 4 6 8 8 8 6 6 6 7 7 7 7 6 6 8 8 7 7 9 5 8 8 9 10 7 7 9 8 7 7 6 6 6 7 6 9 12 12 14 14 13 12 12 10 5 3 1 1 2 5 6 5 5 5 6 6 6 7 10 10 11 10 7 3 3
5 5 6 5 5 6 6 7 7 9 8 5 5 3 9 7 6 5 5 4 4 6 8 7 7 7 7 7 9 8 8 7 8 8 8 6 6 7 8 6 7 7 7 9 8 9 8 7 8 6 6 6 6 5 6 5 6 6 7 11 11 10 8 8 6 3 5 6 6 6 7 7 6 6 5 4 5 6 10 12 12 10 5 5 4
4 5 5 4 3 5 5 6 7 6 8 8 6 5 5 6 6 6 6 6 7 7 7 8 8 8 6 7 8 6 6 7 8 8 8 8 7 7 8 7 7 8 8 8 8 8 10 9 8 6 7 6 6 5 5 4 5 5 5 5 5 5 6 6 6 5 5 5 6 6 6 8 8 10 9 8 8 7 7 7 7 6 6 6 5
5 5 5 5 4 4 5 6 6 6 5 6 7 6 5 4 5 6 7 9 9 8 8 8 8 7 6 7 8 9 9 7 8 8 8 8 8 8 8 7 6 6 8 7 7 7 7 7 7 7 6 6 6 6 5 5 4 4 4 5 4 4 5 4 4 4 4 4 4 6 7 6 5 6 6 6 6 6 7 7 6 6 6 6 6
6 6 6 5 4 5 5 6 6 5 4 5 5 6 6 5 5 5 7 10 10 8 7 8 7 8 8 7 7 8 9 7 7 9 7 7 7 7 9 8 7 4 5 7 8 8 6 6 6 6 7 6 6 6 5 6 6 7 6 5 5 5 4 4 5 6 5 5 5 7 6 6 6 5 5 5 6 6 6 6 6 6 6 7 7
6 7 8 8 8 6 6 6 5 5 5 5 4 4 5 5 4 4 7 11 10 8 9 8 6 7 7 7 7 8 8 9 7 7 8 10 18 19 11 8 8 15 17 15 11 8 6 7 8 7 6 7 6 5 10 12 11 11 11 11 10 10 8 5 8 12 7 6 5 5 6 5 5 5 5 6 6 6 6 6 6 7 7 7 7
6 7 7 8 7 7 7 7 6 6 5 5 5 4 5 6 5 5 6 9 10 9 8 7 7 6 6 6 7 7 7 8 8 8 8 9 7 12 22 23 20 18 18 19 19 18 18 14 10 8 10 17 15 14 13 13 12 11 11 11 11 11 10 9 7 7 6 5 4 5 5 5 5 4 5 5 5 5 5 5 6 6 6 6 6
Wind_Direction
265 267 264 256 258 257 257 255 250 248 247 228 217 214 207 199 176 197 188 168 161 162 167 165 167 157 162 193 198 185 186 180 183 185 190 192 186 183 179 183 183 180 181 176 186 183 182 175 173 176 171 171 175 187 180 180 177 170 159 149 151 136 111 122 155 113 104 315 342 299 307 251 249 316 307 314 322 304 327 353 352 1 358 1 349
276 278 268 264 270 271 263 249 229 235 240 211 211 213 200 182 189 187 159 172 179 177 174 178 181 185 177 188 181 176 174 180 192 194 196 191 185 182 182 183 181 181 178 179 183 180 175 177 181 179 172 180 185 176 170 169 163 155 150 139 199 159 181 175 188 119 48 178 321 323 328 320 303 329 314 300 313 321 334 349 18 7 354 347 338
275 264 275 272 284 281 260 263 234 223 258 204 205 175 181 189 193 172 173 175 183 178 168 181 186 188 180 163 176 170 199 196 191 187 178 186 191 188 186 181 177 180 178 181 178 184 181 175 185 175 177 173 168 170 166 169 173 171 172 167 176 48 121 183 182 166 159 135 139 41 327 8 330 344 321 277 297 304 328 17 4 7 340 346 336
263 264 273 287 293 286 293 286 255 6 117 135 158 174 179 190 184 172 175 179 176 183 181 170 149 117 89 114 128 126 167 156 138 136 174 174 198 195 187 178 181 181 178 176 181 184 180 183 174 175 180 178 176 171 174 178 176 175 176 179 155 165 192 189 206 185 133 139 266 202 221 93 326 332 300 283 270 287 340 331 356 343 337 348 358
256 273 276 297 313 273 254 259 305 185 181 185 174 178 183 190 186 178 173 178 176 173 164 145 128 111 98 75 93 84 68 131 144 179 189 195 186 188 192 175 177 177 177 182 183 184 184 179 175 180 174 182 176 177 178 186 184 181 178 171 182 180 191 168 200 187 204 235 135 100 31 15 224 244 355 286 344 260 282 341 323 351 356 346 349
247 259 270 288 287 292 295 302 295 286 271 238 198 190 170 183 177 174 164 168 172 173 162 156 163 159 152 144 146 169 171 164 191 196 190 191 193 161 161 182 181 184 182 185 190 181 182 181 178 172 177 177 182 185 179 163 178 180 187 180 190 196 159 150 195 220 206 177 151 124 161 167 281 270 68 285 326 212 307 304 291 307 340 330 326
256 263 272 281 275 274 276 270 255 281 271 68 113 199 179 170 174 173 172 173 168 166 162 157 157 169 177 180 178 182 187 208 193 176 176 181 165 181 187 186 187 184 187 186 187 184 181 179 178 179 178 178 180 172 176 184 182 189 180 186 192 165 140 183 191 184 135 251 187 168 132 143 144 73 278 4 355 322 311 302 276 328 326 319 303
260 264 258 244 255 239 243 261 270 242 342 40 53 107 156 177 169 174 170 169 170 161 168 172 170 176 180 187 186 190 195 194 180 179 163 161 175 183 182 190 189 190 184 186 184 183 178 181 181 180 178 181 174 184 185 182 171 182 186 191 171 178 182 189 184 164 179 212 189 201 181 65 94 84 132 204 188 300 311 320 261 287 314 279 253
227 247 243 235 233 235 236 259 282 341 3 50 344 167 145 141 147 144 161 158 163 166 171 182 177 178 181 179 191 200 176 145 150 139 155 164 172 175 183 186 186 189 182 182 184 183 183 183 181 181 181 181 181 182 186 174 178 174 180 183 187 191 194 191 154 192 192 188 129 194 169 194 85 58 95 86 163 206 281 254 299 320 295 289 310
246 230 250 254 249 251 247 279 321 330 321 124 102 109 125 129 134 147 162 161 162 168 174 180 175 164 173 183 187 182 148 121 146 159 166 169 177 181 183 177 182 183 187 184 182 189 189 185 182 184 185 179 179 186 179 176 179 183 186 186 185 191 198 187 197 183 193 185 185 154 170 151 168 282 254 148 336 202 249 278 237 356 343 290 329
314 292 254 250 252 251 284 309 298 30 58 103 94 112 125 128 138 150 169 150 159 173 171 181 179 171 182 184 185 177 174 156 151 163 158 165 177 181 182 187 178 187 182 189 191 188 190 187 184 187 183 179 182 180 184 182 185 184 181 182 188 192 192 197 206 182 180 186 190 174 187 181 187 191 202 195 190 204 327 284 291 219 210 318 288
300 291 282 305 323 327 68 342 2 346 59 84 99 118 131 145 146 149 171 177 173 173 173 180 181 186 188 184 187 186 174 174 178 177 180 179 180 182 184 168 186 186 184 187 194 190 188 185 183 181 182 183 189 183 181 185 177 171 173 183 195 199 187 188 198 194 187 193 204 201 200 190 200 200 175 172 183 212 186 251 272 295 274 232 291
293 275 273 284 274 279 310 319 328 320 172 189 169 160 155 156 166 166 197 185 178 171 179 184 184 194 189 187 191 182 183 184 185 180 180 178 179 174 167 187 178 179 193 190 198 189 180 179 183 186 190 193 184 177 184 175 169 175 180 185 188 189 193 190 194 206 191 191 206 205 193 191 214 194 153 170 183 141 158 269 271 149 250 303 294
276 274 279 269 264 270 261 253 250 259 255 234 201 178 180 174 181 176 215 185 176 174 186 184 197 196 191 190 188 181 188 185 188 181 182 183 177 180 182 185 184 193 187 197 193 183 185 190 186 192 188 180 179 181 174 176 172 178 182 186 193 196 183 192 205 204 198 211 186 186 205 208 219 182 180 152 160 148 183 203 233 299 172 253 289
260 261 259 264 268 254 275 267 263 253 253 246 228 206 173 185 180 191 211 208 183 195 186 196 200 198 195 193 188 186 186 186 190 185 176 178 182 182 189 185 188 196 192 199 177 182 189 183 183 182 179 177 176 176 176 174 177 176 184 194 192 182 189 191 205 197 201 204 201 204 207 215 218 190 174 200 172 192 181 174 155 282 327 6 333
257 251 263 263 259 275 282 273 260 254 252 259 248 218 202 215 201 207 204 197 193 189 199 195 200 196 193 189 195 187 187 182 184 184 183 182 182 185 188 189 196 190 193 173 183 178 181 183 182 184 178 176 179 180 175 175 176 179 185 185 197 177 186 192 205 197 211 206 206 204 193 226 212 193 195 196 196 196 186 154 145 153 203 284 345
255 237 242 267 271 259 236 249 259 255 251 234 223 208 212 212 204 213 217 201 196 198 195 194 192 185 198 195 188 187 186 186 190 192 188 188 185 189 186 195 191 185 183 178 175 183 181 181 182 181 178 179 177 181 180 180 177 182 184 187 197 186 186 197 194 198 213 204 202 198 210 219 219 192 195 203 198 183 187 185 182 188 167 197 284
269 272 259 257 261 262 261 247 238 237 230 227 227 211 210 212 208 210 200 201 207 195 194 191 188 192 193 193 196 195 194 196 191 190 187 180 192 189 185 178 191 188 179 181 174 179 182 180 181 182 180 175 182 181 182 182 176 186 190 194 197 178 189 193 197 199 208 196 202 201 206 223 210 185 207 203 191 192 187 193 200 196 167 193 197
268 263 265 258 242 244 240 240 247 240 240 237 213 202 202 201 208 209 214 214 202 195 194 192 190 194 193 197 195 198 199 197 195 188 179 186 189 188 187 193 184 180 175 170 176 178 179 182 182 182 176 181 179 182 180 181 180 185 189 196 188 178 186 198 202 194 205 186 198 210 203 221 202 204 198 193 195 185 199 192 199 183 193 190 197
265 265 260 254 251 245 241 244 256 258 261 254 256 252 236 211 201 218 245 255 214 196 190 199 203 197 200 192 206 201 196 194 191 183 188 192 192 187 190 183 190 178 183 178 177 180 180 179 183 178 179 177 179 183 178 181 180 191 186 193 191 181 190 199 203 201 191 191 197 208 210 216 202 189 196 198 197 198 189 191 194 193 199 199 189
260 254 260 261 260 269 276 273 270 278 267 273 271 275 274 258 236 220 234 246 232 218 192 212 186 203 195 201 201 192 197 194 190 191 191 194 190 188 189 191 166 187 178 177 182 184 181 183 178 179 179 180 182 182 182 177 183 188 191 194 186 185 192 204 198 204 196 190 201 209 214 214 182 198 203 196 195 196 191 199 191 186 201 196 186
273 275 275 283 290 286 286 283 268 274 278 274 272 267 274 252 235 209 211 237 228 224 208 205 200 196 201 208 204 193 193 189 191 193 196 192 192 190 188 173 185 192 179 183 186 184 183 179 178 182 183 183 186 185 180 177 183 187 195 192 190 188 196 202 195 208 197 201 198 208 215 202 188 205 196 201 197 186 188 194 202 194 208 204 196
291 292 290 279 271 270 277 276 272 262 269 276 283 255 251 250 237 223 212 242 216 229 217 198 195 199 211 212 195 193 190 191 190 196 199 194 194 192 180 184 192 187 190 187 187 184 182 179 181 184 183 185 187 187 181 182 187 188 192 195 194 191 194 195 198 207 200 194 200 208 214 193 182 202 206 205 182 194 186 197 208 200 211 208 193
287 287 279 273 272 276 285 279 277 275 265 265 262 256 251 245 229 208 224 237 217 217 206 200 202 209 210 195 199 198 188 189 194 199 199 197 191 190 183 189 191 183 186 198 188 183 178 179 183 185 186 186 185 184 181 187 189 189 193 196 194 197 197 198 200 203 198 191 203 205 214 189 187 203 207 194 190 187 191 204 210 210 209 212 197
302 294 285 293 293 282 269 260 260 261 260 254 254 252 248 246 219 216 230 230 215 196 197 207 201 204 199 196 203 195 195 195 200 197 201 192 192 187 185 190 183 189 190 182 191 180 177 178 184 185 184 186 186 183 184 188 192 193 194 194 196 198 201 202 203 202 197 197 200 206 203 185 187 206 204 190 188 197 203 198 213 209 208 216 195
298 295 298 290 273 263 260 268 272 269 259 256 249 243 245 247 242 224 229 223 215 186 200 201 202 198 201 200 203 198 203 202 201 199 196 190 187 186 187 195 185 187 184 186 181 184 180 183 185 185 185 187 183 186 188 188 190 191 194 197 197 200 202 202 203 202 200 199 202 205 195 185 191 201 211 202 193 203 195 204 213 209 209 199 204
283 285 285 293 290 279 266 242 242 255 256 254 251 249 243 243 252 244 231 225 209 187 199 202 201 204 199 205 201 206 203 204 201 199 187 181 185 188 184 190 189 183 179 183 186 181 189 178 184 177 184 182 184 185 187 187 187 187 192 193 197 199 200 202 202 202 203 204 205 200 189 190 199 206 209 200 196 199 194 210 211 209 195 183 199
270 274 279 278 275 280 284 281 270 256 255 257 251 245 246 238 245 246 233 225 211 193 198 204 201 206 208 209 211 204 201 204 199 183 180 186 182 182 190 185 175 182 182 182 178 179 180 176 177 182 184 177 177 180 184 186 184 185 186 195 194 195 199 201 203 203 201 205 206 199 193 194 203 207 204 200 182 198 192 212 217 192 179 182 201
272 270 269 268 273 278 280 279 277 270 260 258 256 252 243 248 244 245 229 224 201 190 199 202 204 210 213 211 200 194 184 183 179 176 178 183 186 185 180 173 178 182 177 177 173 169 162 171 168 173 172 170 175 184 183 180 181 185 184 191 191 193 194 197 203 206 205 207 205 201 195 200 206 212 207 198 194 192 182 205 216 182 187 187 202
262 262 257 257 259 265 269 273 276 273 266 254 248 242 235 235 244 238 231 226 170 203 196 199 207 215 213 198 184 177 182 175 175 182 185 178 174 171 165 167 176 172 163 154 147 149 157 164 163 160 157 164 179 183 188 186 184 179 183 185 184 192 190 192 192 197 208 205 207 200 208 207 210 214 214 211 205 205 203 200 194 180 188 187 196
257 257 256 257 261 261 264 265 263 264 259 256 249 245 237 237 240 236 228 213 185 197 200 198 213 212 195 172 172 184 168 179 185 174 166 167 166 160 160 161 158 154 152 150 144 146 156 160 163 162 164 175 182 187 189 187 187 178 171 173 181 188 184 182 184 186 200 203 209 204 205 218 220 224 222 220 218 215 220 221 214 189 188 183 186
255 256 261 259 251 250 249 252 255 258 258 247 247 241 232 238 230 226 223 177 190 201 199 206 210 187 178 175 178 168 171 176 167 174 169 165 153 151 153 153 149 144 142 138 145 154 151 149 143 152 162 175 183 184 181 186 184 179 171 172 172 172 175 176 175 181 185 181 191 193 199 191 199 205 201 208 215 220 224 229 232 224 210 209 200
260 263 254 248 247 246 246 249 252 256 256 247 232 231 229 231 222 223 159 173 195 202 201 200 192 178 178 171 164 168 164 164 171 157 155 151 146 140 134 141 150 148 134 138 144 135 141 142 141 141 136 128 130 170 181 181 183 178 172 160 162 162 161 171 167 170 175 178 176 175 188 192 208 205 206 194 190 202 211 221 228 229 227 219 224
259 247 248 252 253 252 248 244 250 256 255 262 222 217 231 220 214 185 179 194 187 194 190 186 173 175 168 163 162 157 140 149 150 151 152 147 140 140 130 129 129 131 131 123 124 127 132 132 127 119 112 103 97 120 141 160 168 169 164 149 151 148 146 151 159 161 165 172 175 176 173 194 238 188 189 187 183 193 189 198 252 249 243 250 240
264 262 256 254 256 261 261 259 255 254 257 249 250 227 196 164 171 182 192 180 188 170 168 158 153 146 142 145 145 141 135 143 144 135 130 119 118 117 116 118 128 133 132 126 134 120 119 118 113 112 103 88 62 94 110 120 136 150 154 140 131 125 121 108 104 113 126 138 142 142 145 155 143 161 172 173 175 187 174 188 215 245 234 234 229
256 256 263 264 267 263 259 262 262 251 237 204 225 189 179 195 161 174 165 165 155 144 133 127 126 132 139 142 137 130 127 126 123 115 88 92 98 85 115 119 104 98 102 106 93 102 107 106 110 108 99 85 66 78 88 92 106 116 107 105 112 107 104 97 91 95 102 107 115 120 122 113 123 122 200 182 187 149 153 178 218 268 281 267 251
258 267 277 298 311 293 286 291 299 336 346 283 234 159 155 136 141 142 143 143 141 134 135 130 129 131 136 140 142 138 133 131 129 110 104 113 120 115 103 102 90 106 97 65 89 80 102 107 99 93 93 83 66 70 80 87 101 109 96 98 103 100 93 93 86 89 91 87 86 94 100 109 104 71 351 335 310 148 143 191 219 241 245 257 269
305 328 316 334 344 352 11 24 46 46 18 339 141 147 129 121 112 111 114 110 109 111 117 121 126 135 138 143 144 138 132 130 125 119 123 123 115 95 113 128 119 116 96 97 98 85 66 72 83 78 82 86 69 63 74 76 82 92 99 102 105 102 98 97 99 89 89 83 80 87 89 91 92 105 184 169 253 170 184 203 209 219 233 244 254
350 339 328 345 1 18 24 26 36 36 352 1 103 117 113 103 95 90 86 83 69 68 72 80 72 90 110 130 139 134 134 132 128 129 130 130 130 128 118 100 99 100 98 97 91 89 79 63 66 76 73 78 74 62 67 72 72 77 82 90 98 100 99 94 98 91 80 87 74 64 68 75 72 72 73 70 60 104 179 210 220 227 251 260 262
357 14 6 360 353 25 32 25 16 351 334 38 79 85 86 93 84 82 77 67 60 60 63 55 56 50 50 59 80 107 109 117 118 111 105 109 117 114 114 108 101 104 105 97 90 90 88 73 64 68 65 67 76 71 68 70 69 69 73 77 72 92 98 101 86 89 91 66 61 54 44 44 53 52 51 51 51 67 86 29 340 247 272 285 315
11 360 23 42 48 64 64 41 4 340 345 44 92 91 86 85 88 82 72 69 66 64 64 65 64 62 58 57 53 81 96 88 97 106 102 90 93 110 111 109 109 103 101 95 93 93 87 78 64 60 64 52 54 71 71 74 72 70 68 69 70 70 77 83 77 65 53 53 35 31 21 24 33 36 37 35 38 40 69 82 77 140 231 301 11
30 27 21 69 69 52 52 38 20 7 357 22 91 97 102 97 89 81 86 88 75 73 75 71 69 65 61 59 68 71 77 91 94 102 97 87 77 89 99 107 107 108 103 99 98 94 91 84 71 60 58 57 46 52 68 72 75 76 76 77 74 72 85 96 89 84 75 72 57 27 10 13 32 31 26 25 26 32 38 61 359 359 353 13 22
37 17 352 334 56 61 51 40 11 19 16 359 69 101 96 94 84 96 112 108 98 91 86 81 76 71 61 60 57 68 73 79 87 90 99 95 93 93 95 103 110 107 105 105 102 102 98 93 83 68 62 55 51 50 60 64 69 70 72 75 80 81 78 83 99 101 104 120 120 29 322 11 28 21 16 15 16 22 35 360 4 6 6 351 337
87 81 14 5 63 64 59 40 29 28 30 13 355 87 86 84 75 45 16 75 98 101 98 90 86 82 80 73 71 70 70 72 82 91 93 100 97 97 93 103 112 114 114 109 107 109 102 99 98 89 71 62 55 57 52 51 57 63 64 66 68 72 78 82 85 95 93 82 31 342 18 28 22 13 10 9 13 22 22 23 31 36 38 26 13
112 77 56 43 51 63 61 45 27 22 31 15 335 97 98 89 59 37 38 44 72 81 85 90 77 85 84 86 77 76 72 67 60 76 91 96 99 103 101 94 106 106 111 109 108 106 106 111 99 96 90 76 65 60 58 50 50 50 58 60 59 57 58 61 56 48 64 359 44 49 44 33 28 20 30 37 35 46 55 52 49 46 46 46 33
85 72 62 74 76 70 65 67 42 26 24 7 339 355 97 105 105 82 48 25 58 85 88 90 77 69 68 92 84 75 69 65 68 67 67 69 85 89 97 92 89 93 97 105 108 107 102 102 102 102 96 91 75 69 61 49 47 47 44 48 52 55 49 51 60 38 38 42 44 46 52 52 50 55 59 61 59 59 55 49 46 42 41 38 25
92 99 108 102 87 79 74 76 68 34 28 19 357 14 53 83 81 85 87 83 71 70 60 44 53 49 74 83 76 73 75 67 66 71 70 69 69 77 83 81 89 99 99 103 105 107 107 108 106 106 104 95 86 72 61 52 54 49 44 39 39 41 43 38 33 35 38 29 44 57 63 64 71 68 65 63 63 56 49 41 38 34 34 30 28
54 65 61 70 65 76 83 77 70 50 50 32 24 19 18 37 69 82 94 96 91 89 81 64 44 54 71 75 77 77 76 74 68 71 73 70 68 68 69 70 82 103 120 111 115 112 109 115 113 109 102 96 84 73 62 49 42 55 42 43 49 59 49 38 41 56 54 41 53 49 46 31 42 39 41 34 32 38 44 37 30 31 33 30 27
35 26 26 50 57 62 65 69 62 51 49 69 44 24 6 360 41 78 97 98 97 94 93 91 98 90 80 73 78 79 83 74 75 72 59 57 60 65 77 80 64 44 77 112 111 96 90 89 94 100 106 99 85 71 65 70 59 62 66 64 51 64 55 12 48 63 67 43 47 46 35 35 32 37 36 35 28 29 34 30 27 28 28 27 24
46 48 45 47 42 43 52 58 49 36 48 57 55 36 3 348 27 72 101 105 105 97 88 69 67 80 92 93 92 90 89 87 71 76 82 69 57 63 72 78 84 84 85 87 90 97 103 103 93 81 84 93 95 85 74 64 60 59 60 64 62 53 53 54 68 63 69 65 53 67 45 42 32 33 35 28 24 20 19 22 18 22 24 29 26
92 82 67 61 54 47 44 49 41 32 30 37 33 19 15 357 25 53 94 107 113 107 97 83 86 81 82 87 93 93 96 96 89 85 83 87 97 53 56 65 72 80 86 90 92 92 88 81 83 89 84 84 81 76 68 60 57 59 61 61 59 54 48 47 59 72 38 60 52 63 48 42 40 42 47 32 25 26 20 24 16 16 20 22 19